Weather in Meteli

Russia / Republic of Bashkortostan     56°00′32″N   57°56′51″E
temp.,
°C
wind,
m/s
gust,
m/s
humid.,
%
clouds,
%
prec.,
mm/h
press.,
hPa
HPBL,
m
27 february, sat
sat2723:00−21se118751 0.0 102220
02:00−22ese129278 0.0 101920
05:00−23ese229269 0.0 101720
08:00−22ese1290100 0.0 101323
11:00−17ese3794100 0.1 1012288
14:00−13se61094100 0.8 1009472
17:00−13se61093100 1.3 1009479
20:00−15se51095100 0.4 1008408
28 february, sun
sun2823:00−15e4895100 0.8 1007261
02:00−16e369393 0.0 1005116
05:00−16ene369391 0.0 1004135
08:00−15ene3894100 0.1 1004213
11:00−11e4893100 0.2 1004452
14:00−8e5891100 0.3 1004586
17:00−9ene5892100 0.5 1005545
20:00−12ene5994100 0.2 1007442
1 march, mon
mon123:00−14ene4993100 0.3 1010374
02:00−15ne4894100 0.1 1011335
05:00−16ne4796100 0.3 1013356
08:00−17ne3796100 0.3 1014305
11:00−16ne3593100 0.4 1016392
14:00−13ne3488100 0.2 1016483
17:00−12nne2390100 0.3 1017415
20:00−15nnw229698 0.1 101824
2 march, tue
tue223:00−19wnw119982 0.1 101820
02:00−20wsw119855 0.0 101820
05:00−20sw229857 0.0 101721
08:00−22ssw239778 0.0 101626
11:00−17ssw369175 0.0 1014344
14:00−12ssw478694 0.0 1011530
17:00−11ssw498494 0.0 1009556
20:00−12ssw31091100 0.0 1008441
3 march, wed
wed323:00−13ssw31190100 0.1 1007547
02:00−14ssw3892100 0.2 1006504
05:00−13s2796100 0.6 1005426
08:00−13sse2596100 0.4 1003181
11:00−9s3593100 0.8 1002355
14:00−5s3490100 0.4 1001483
17:00−4sse2393100 0.6 1000314
20:00−6se1198100 0.3 100021